2017 Great Turtle Trail Run

Mackinac Island, MI
2017-10-28
Starts on: 2017-10-28
Where: Mackinac Island, MI
Categories: Half Marathon Run 5.7 Mile Run 5.7 Mile Walk
Description: Join us for the 22nd running of the Great Turtle Half Marathon and 5.7 Mile - celebrated as one of the most scenic trail events in the country! Enjoy the beauty of Mackinac Island's Fall season running and walking the interior trails and shoreline of the Island on the last open weekend of the season.
Overall Half Marathon
name bib rank time pace hometown
Nick Liversedge 562 1 01:20:45 06:10 Ada, MI
Kevin Jones 486 2 01:24:49 06:29 Ann Arbor, MI
Rick Hawley 420 3 01:25:22 06:31 East Jordan, MI
Joshua Kersjes 508 4 01:27:30 06:41 Byron Center, MI
Luke Ellison 310 5 01:28:45 06:47 Wyoming, MI
Grant Hawes 419 6 01:28:54 06:48 Milford, MI
Randy Ray 733 7 01:29:01 06:48 Ramona, CA
Emily Short 809 8 01:29:07 06:49 Tawas City, MI
Keith Wallace 1050 9 01:29:38 06:51 Ionia, MI
Bruce Langlois 982 10 01:30:15 06:54 Lowell, MI
Michael Hinton 431 11 01:32:01 07:02 Indianapolis, IN
Jake Pasternak 691 12 01:32:29 07:04 Gaylord, MI
Trevan Thompson 869 13 01:33:53 07:10 Grand Rapids, MI
Mike Haverdink 974 14 01:34:15 07:12 MacKinac Is, MI
Cristina Noble 660 15 01:34:44 07:14 Brighton, MI
Matt Bartman 1059 16 01:34:54 07:15 Flint, MI
Thomas McGough 613 17 01:35:17 07:17 Holland, MI
Matthew Thomas 867 18 01:35:27 07:18 New Baltimore, MI
Dave Buursma 228 19 01:35:53 07:20 Grand Rapids, MI
Marissa Lobert 565 20 01:35:55 07:20 Sault Ste Marie, --
Tim Nelson 656 21 01:36:14 07:21 Omer, MI
Joseph Cantwell 25 22 01:36:34 07:23 Allegan, MI
Joseph Csmereka 1016 23 01:36:51 07:24 Munster, IN
Jay Lonsway 566 24 01:37:00 07:25 Marquette, MI
Steve Slade 814 25 01:37:12 07:26 Appleton, WI
Derek Haroldson 404 26 01:37:18 07:26 Mattawan, MI
Maxwell Holmes 442 27 01:37:40 07:28 Sheboygan, WI
Glenn Bradley 204 28 01:37:40 07:28 Sandy, UT
Nikki Liversedge 563 29 01:37:43 07:28 Ada, MI
Elaine Hodder 434 30 01:38:16 07:31 Brighton, MI
Rebecca Yurgens 950 31 01:38:42 07:33 Saint Charles, MI
Gabriel Kromer 981 32 01:38:52 07:33 Mackinac Island, MI
Jonathan Calderon 230 33 01:39:36 07:37 Clinton Twp, MI
Chad Kikstra 510 34 01:39:39 07:37 Holland, MI
Mack Gembis 363 35 01:39:40 07:37 Birmingham, MI
Lisa Buursma 229 36 01:39:51 07:38 Grand Rapids, MI
Josh Kluzak 520 37 01:41:46 07:47 East Lansing, MI
Valerie Ingersoll 459 38 01:41:55 07:47 Manawa, WI
Tom Bruursema 218 39 01:42:06 07:48 Manchester, MI
Natalie Vidacs 897 40 01:42:08 07:48 N Royalton, OH
John Ross 772 41 01:42:09 07:48 Zeeland, MI
Samuel Langley 549 42 01:42:27 07:50 Chesterton, IN
Rob Kitchen 513 43 01:42:35 07:50 Elk Rapids, MI
Scott Douglas 298 44 01:42:42 07:51 Auburn, MI
Jennifer Murray 648 45 01:42:44 07:51 Milford, MI
Jason Brigham 20 46 01:42:57 07:52 Grayling, MI
Alex Wagner 901 47 01:43:34 07:55 Lenox, MI
Rob Fox 1039 48 01:43:43 07:56 Negaunee, MI
John Douglas 297 49 01:43:52 07:56 Sault Ste. Marie, MI
Amber Williamson 931 50 01:44:04 07:57 -, US
Meagan Center 238 51 01:44:13 07:58 Midland, MI
Nicholas Haveman 417 52 01:44:20 07:58 Ada, MI
Katie Frentz 347 53 01:44:33 07:59 Petoskey, MI
Dan Schroeder 1048 54 01:44:39 08:00 Grand Rapids, MI
Christy Jepson 471 55 01:44:45 08:00 Westerville, OH
David Tencate 1049 56 01:45:00 08:01 Hudsonville, MI
Chris Schild 792 57 01:45:11 08:02 Howell, MI
Gina Hurren 454 58 01:45:30 08:04 Bay Port, MI
David Redman 734 59 01:45:34 08:04 Spring Lake, MI
David Weiss 1004 60 01:46:09 08:07 Ann Arbor, MI
Jessica Alpers 146 61 01:46:11 08:07 Lake Leelanau, MI
Michelle White 922 62 01:46:12 08:07 Traverse City, MI
Roy Knopp 523 63 01:46:12 08:07 Midland, MI
Mary Harris 410 64 01:46:18 08:07 Hart, MI
Cullen Gnass 369 65 01:46:21 08:08 Pinckney, MI
Ric Moody 636 66 01:46:22 08:08 Saginaw, MI
Sarah Grant 973 67 01:46:25 08:08 Ada, MI
George Sveda 849 68 01:46:29 08:08 Farmingtn Hls, MI
Michelle Urben 883 69 01:46:39 08:09 Sterling Hts, MI
John Topacio 873 70 01:46:42 08:09 Chicago, IL
Nick Kleinfeld 518 71 01:46:54 08:10 Bay Port, MI
Matt Buckland 22 72 01:47:04 08:11 Portland, MI
Mark May 600 73 01:47:07 08:11 Midland, MI
Thomas Theisen 1000 74 01:47:09 08:11 Holland, MI
Brian Hosticka 448 75 01:47:26 08:13 Muskegon, MI
Kayla Contardi 250 76 01:47:27 08:13 Midland, MI
Jeff Contardi 249 77 01:47:28 08:13 Midland, MI
Phil Schafer 790 78 01:47:31 08:13 Gaylord, MI
Neil Larson 551 79 01:47:38 08:13 Gobles, MI
Anya Mallinger 83 80 01:47:47 08:14 Sault Ste Marie, --
Audrey Stempky 120 81 01:47:52 08:15 Petoskey, MI
Susie Tazzi 1027 82 01:47:52 08:15 Essexville, MI
Rick Fall 1018 83 01:48:04 08:15 Sault Ste. Marie, --
Jessica Courtright 36 84 01:48:12 08:16 Stanwood, MI
Mark Arbogast 8 85 01:48:17 08:16 Hesperia, MI
Leah Molchan 633 86 01:48:21 08:17 Hudsonville, MI
Jon Weiss 1030 87 01:48:38 08:18 Flint, MI
Emily Goorley 370 88 01:48:40 08:18 Grand Rapids, MI
Melanie Hartges 413 89 01:48:41 08:18 Haslett, MI
Kevin Juzysta 489 90 01:48:44 08:19 Clarkston, MI
Jeffrey Musson 649 91 01:48:55 08:19 Clarkston, MI
Matthew Fusilier 354 92 01:49:01 08:20 Mason, MI
Paul Elwart 45 93 01:49:05 08:20 Imlay City, MI
Shawn McNamara 618 94 01:49:05 08:20 Flat Rock, MI
Brian Aimesbury 7 95 01:49:14 08:21 Gaylord, MI
Kristy Currie 1017 96 01:49:16 08:21 MacKinaw City, MI
Jeb Burns 227 97 01:49:19 08:21 Okemos, MI
John Burch 223 98 01:49:30 08:22 Fort Myers, FL
Mark Thompson 868 99 01:49:31 08:22 Dewitt, MI
Phillip Stier 842 100 01:49:32 08:22 Morley, MI

Next Page